GFSNGP_500_rhum_045.txt.gz
RH
19 23 28 27 24 23 20 16 15 16 17 18 18 17 16 16 16 18 22 24 28 34 33 33 31 30 38 54 58 66 67 59 78 80 81 76 76 66 58 51 48 49 21 8
21 23 24 24 20 16 15 14 15 16 16 17 17 17 16 16 18 20 21 23 29 34 34 36 34 34 45 61 69 66 75 92 91 82 80 70 63 58 50 50 47 19 8 8
18 19 18 14 17 18 16 16 16 17 17 16 17 16 17 18 20 21 22 27 34 36 40 38 40 49 64 76 84 94 95 88 84 83 71 67 58 51 53 46 18 8 9 11
15 14 10 11 13 16 18 17 15 16 17 17 17 17 18 18 20 22 22 27 34 40 42 44 50 60 80 90 93 90 87 90 87 76 74 64 53 58 45 18 9 10 12 17
13 11 9 9 9 10 11 12 14 16 17 17 18 18 20 20 21 22 26 30 38 43 49 52 61 80 92 96 95 91 97 96 87 79 67 57 65 45 17 10 11 12 17 23
15 11 9 12 14 13 11 11 13 14 16 18 19 21 23 22 23 26 30 37 45 54 58 62 73 95 100 97 98 100 98 91 83 68 60 69 47 18 11 12 12 15 22 52
16 12 11 18 20 18 17 16 16 17 18 21 24 26 24 24 27 31 39 48 54 56 55 72 89 98 100 100 100 95 90 83 71 64 74 54 20 11 13 13 14 22 28 68
18 16 17 20 20 18 18 18 20 22 26 29 29 26 25 28 35 46 51 52 52 61 75 85 96 100 100 100 98 92 85 73 68 78 58 21 11 14 14 15 20 28 45 91
9 11 14 13 12 14 20 24 27 30 30 28 25 26 30 41 48 48 44 47 70 88 98 100 100 100 100 100 100 95 76 72 79 66 26 11 14 15 15 19 26 32 60 100
8 16 12 8 8 12 17 27 31 29 26 26 28 37 45 45 39 41 54 81 91 100 100 100 100 100 100 100 100 87 73 78 71 30 11 14 14 17 17 24 31 33 74 100
7 9 7 12 16 19 23 24 24 25 30 38 47 46 38 50 73 82 94 99 100 100 100 100 100 100 100 100 96 76 80 71 28 11 14 16 17 20 22 28 33 33 82 100
8 11 12 17 22 23 24 26 34 45 48 44 35 43 76 86 98 100 100 100 100 100 100 100 100 100 100 94 79 80 70 28 12 14 17 17 22 24 31 33 33 32 78 99
15 18 21 22 26 37 49 52 47 39 34 36 70 87 96 99 100 100 100 100 100 100 100 100 100 100 92 81 82 71 25 11 13 19 18 22 28 31 41 38 38 35 70 99
27 29 36 45 48 44 38 34 33 45 74 90 93 99 100 100 100 100 100 100 100 100 100 100 100 92 90 87 64 23 11 13 20 20 19 30 37 44 55 58 53 45 51 84
44 44 42 39 34 34 54 74 88 96 94 94 100 100 99 99 100 100 100 100 100 100 100 96 94 98 84 43 14 11 13 21 22 20 26 41 50 60 68 74 72 66 54 61
44 37 31 37 60 82 95 99 100 100 99 99 99 97 98 100 100 100 100 100 100 100 94 94 92 60 20 13 11 13 21 26 21 20 45 55 63 71 75 75 77 85 80 66
37 57 79 90 98 100 100 100 100 100 100 99 97 96 97 97 96 100 100 100 100 100 94 65 27 14 13 13 16 20 30 28 21 21 45 65 76 84 82 80 82 87 90 93
93 95 94 99 100 100 100 100 98 92 89 87 84 86 97 100 100 100 99 100 91 56 25 14 13 14 17 20 24 27 37 30 22 26 51 69 74 87 91 89 98 99 100 98
99 98 99 99 99 99 97 91 80 72 71 81 95 100 100 100 100 99 84 43 16 12 13 16 20 23 25 26 26 30 42 35 23 27 55 73 78 84 85 85 96 94 93 98
100 100 98 94 86 76 74 71 73 91 99 100 100 100 100 89 52 27 16 12 14 15 17 24 26 27 28 28 30 38 46 40 24 26 52 68 72 83 85 82 83 88 92 96
87 84 80 77 76 77 82 94 100 100 100 100 98 70 36 19 15 14 13 14 18 20 25 25 24 29 32 39 41 48 47 38 24 25 49 67 67 74 78 77 74 78 87 95
82 82 77 74 80 87 91 97 100 98 78 42 20 17 16 15 14 14 17 22 22 25 27 28 30 41 47 49 47 47 44 35 25 28 54 72 75 81 82 79 81 86 95 99
75 69 76 89 96 100 100 96 66 41 22 18 19 19 18 17 16 16 19 24 26 26 27 29 39 47 43 42 44 42 39 33 26 30 56 82 90 94 96 96 97 99 100 99
57 86 97 100 100 93 61 47 29 23 22 22 21 22 25 25 22 25 25 26 26 26 30 32 40 44 37 33 35 38 37 33 29 36 62 89 100 100 100 100 100 100 100 100
100 100 98 82 61 59 48 34 24 25 27 23 23 30 34 26 24 24 26 30 34 43 45 44 43 36 29 28 30 32 33 32 33 49 73 100 100 100 100 100 100 100 100 100
77 79 75 68 56 38 25 23 25 30 29 31 39 41 31 21 23 28 33 34 33 34 33 28 25 24 25 27 28 29 30 35 49 64 88 100 100 100 100 100 100 100 100 93
79 63 44 34 30 31 35 34 35 34 41 45 42 32 21 22 25 24 22 22 22 22 23 22 22 22 22 23 25 27 30 38 70 83 97 100 100 100 100 100 100 100 98 90

GFSNGP_500_rhum_048.txt.gz
RH
20 17 17 22 28 32 30 29 26 21 17 16 16 16 16 17 17 17 16 16 17 19 20 21 24 31 37 42 44 50 59 75 85 91 92 92 94 92 85 73 60 48 51 49
21 19 16 19 24 27 27 21 17 19 14 17 16 17 17 16 16 17 17 18 19 20 21 23 27 34 43 47 51 57 66 79 92 97 98 98 96 86 72 59 48 50 52 23
20 19 18 17 21 23 25 25 24 18 17 15 16 15 15 16 17 18 19 20 22 22 22 26 32 40 46 50 55 61 76 98 100 100 100 98 89 74 60 50 52 55 24 10
20 19 15 15 16 18 17 17 16 15 14 13 13 13 15 17 18 20 22 24 24 24 26 32 42 50 56 60 63 77 98 100 100 100 100 98 89 68 54 54 56 24 10 12
17 16 13 13 13 14 12 13 12 11 11 11 12 13 16 18 20 22 26 28 27 29 34 44 53 59 59 63 83 97 100 100 100 100 100 100 90 63 55 59 27 10 12 14
21 16 13 16 18 18 14 13 14 16 16 18 19 20 21 23 26 30 32 28 30 37 51 54 52 49 66 85 94 100 100 100 100 100 98 93 70 58 62 32 10 13 14 15
24 22 17 17 15 14 14 13 12 13 17 22 26 28 30 32 34 32 30 33 46 54 49 48 59 82 86 98 100 100 100 100 100 97 95 77 61 65 40 11 12 14 15 19
15 13 12 12 9 7 9 8 9 11 14 18 24 31 35 33 30 32 41 52 48 44 66 79 88 88 98 100 100 100 100 100 95 95 80 64 66 39 10 11 16 16 18 24
8 9 9 7 6 6 7 7 8 10 16 22 24 25 26 29 41 50 50 38 50 82 87 88 86 97 100 100 100 100 100 96 95 80 74 71 42 10 11 17 17 20 23 30
8 9 8 7 7 7 8 10 15 19 22 23 23 28 40 50 49 37 37 71 88 89 86 89 100 100 100 98 100 100 100 100 88 79 76 36 11 10 18 18 21 26 30 33
9 9 8 9 9 10 10 14 18 21 25 34 47 51 46 37 35 50 84 93 96 100 100 100 100 100 100 100 99 100 100 88 80 75 32 11 11 18 20 21 28 32 38 38
9 10 10 9 10 13 16 20 24 34 45 48 41 36 36 52 80 95 100 98 96 99 100 100 100 100 100 100 100 100 87 83 66 24 10 12 19 23 21 30 37 47 54 48
11 12 12 13 17 22 30 39 46 45 38 36 48 72 91 96 99 100 100 100 100 100 100 100 100 100 100 100 95 86 82 53 14 11 13 17 27 23 25 39 49 61 68 65
18 21 25 30 34 38 42 44 39 34 47 74 90 97 99 100 100 100 100 100 100 100 100 100 100 100 97 87 84 67 24 11 12 15 21 27 31 24 31 52 65 70 71 78
33 36 39 44 48 46 36 34 46 71 92 98 100 100 100 100 100 100 100 100 100 100 100 100 100 95 86 62 27 12 12 14 20 22 24 34 36 24 38 64 79 78 74 73
51 52 48 39 34 43 61 78 90 94 98 100 100 100 100 100 100 98 93 96 100 100 100 98 87 57 22 13 12 12 16 20 24 26 27 40 39 26 44 70 89 97 92 85
44 40 38 40 48 69 91 95 98 100 100 100 97 97 99 92 83 92 99 100 100 100 76 49 22 14 12 12 15 19 22 24 29 32 32 43 42 27 46 76 84 92 93 92
48 56 72 84 92 96 99 100 98 97 98 96 92 84 80 84 94 99 98 91 60 34 17 18 16 14 15 20 24 26 27 29 35 40 39 45 42 27 38 74 88 89 90 89
72 86 94 99 99 99 96 97 94 87 82 76 75 80 94 96 92 87 56 30 21 19 21 20 19 20 22 25 27 29 31 43 46 48 47 46 39 28 38 66 81 87 89 90
99 100 100 99 95 89 85 81 78 74 76 84 88 91 97 75 43 24 23 21 20 23 28 25 19 20 23 25 26 29 33 45 43 42 44 43 36 30 43 74 80 80 80 85
100 96 90 84 83 82 77 68 68 78 77 87 94 76 46 25 24 26 25 20 25 33 32 24 19 23 28 29 32 35 36 44 42 35 38 39 36 30 44 79 91 91 91 92
81 83 83 74 51 32 34 51 71 97 92 67 46 34 28 26 26 31 31 32 33 33 29 20 24 31 37 37 38 45 44 43 36 29 31 35 35 32 47 83 100 100 100 100
65 33 16 11 10 29 60 83 76 56 45 45 38 27 23 24 31 37 36 40 34 30 20 23 25 25 26 26 27 31 32 28 27 28 29 32 35 40 57 92 100 100 100 100
11 9 8 19 46 53 66 65 61 59 42 32 29 35 48 52 48 48 45 37 29 21 24 22 20 21 23 23 24 24 25 26 26 27 30 33 42 58 82 100 100 100 100 100
8 11 16 23 39 74 76 73 58 43 39 49 72 78 67 58 51 40 36 29 21 21 20 21 22 21 21 21 21 21 22 22 24 26 30 41 51 76 99 100 100 100 100 100
10 14 30 54 78 86 80 64 59 72 73 69 67 66 61 47 39 34 26 20 16 18 23 22 19 17 16 16 17 19 22 24 28 30 35 43 58 79 100 100 100 100 100 100
30 49 76 87 93 87 88 91 84 74 73 71 56 46 40 37 30 22 16 14 23 24 19 16 14 14 16 17 20 24 29 34 37 42 45 55 61 97 100 100 100 100 100 100

GFSNGP_500_rhum_051.txt.gz
RH
12 14 23 19 22 23 25 32 34 28 33 30 24 19 15 14 14 15 17 16 16 17 18 19 20 23 24 26 28 36 44 53 53 51 70 87 97 99 100 100 100 92 83 67
19 19 20 18 17 21 24 30 34 32 30 26 20 15 17 13 16 17 15 16 17 18 19 21 24 27 28 29 36 47 52 54 54 74 94 100 100 100 100 98 93 85 74 53
25 25 23 18 18 20 23 25 27 27 29 23 19 20 18 16 15 14 15 16 18 19 23 27 31 31 30 38 49 52 51 56 76 99 97 100 100 99 96 90 85 73 58 52
31 31 22 19 22 22 20 19 19 17 19 14 13 11 12 12 13 16 18 21 24 27 31 35 33 33 41 53 49 54 67 90 96 97 100 100 99 96 93 88 83 68 56 40
29 29 25 23 15 20 18 19 13 16 15 14 14 15 16 17 22 23 26 29 32 36 37 33 34 46 55 49 64 89 96 95 95 100 100 100 100 100 99 93 79 66 45 21
32 30 24 20 24 22 21 20 14 16 16 18 19 19 23 20 25 30 33 34 36 33 31 38 53 54 48 84 97 100 94 96 100 100 100 100 100 100 93 85 68 48 20 9
26 25 22 21 21 18 16 13 12 11 9 10 11 17 17 16 20 24 26 28 28 34 51 55 45 56 88 94 96 89 98 100 100 100 100 100 98 96 89 71 54 22 9 14
19 17 12 11 8 7 7 6 7 6 6 7 8 10 13 17 21 23 25 33 47 52 42 39 64 91 99 90 92 100 100 100 100 100 100 100 96 88 69 49 24 9 14 20
9 9 7 6 6 6 7 7 7 8 8 8 8 11 14 17 21 31 45 47 37 35 51 82 96 97 96 99 100 100 100 100 100 100 99 95 82 64 38 14 11 15 22 22
10 9 8 8 8 9 9 9 9 10 10 10 13 15 21 33 47 45 33 35 48 79 97 100 100 93 100 100 100 100 100 100 100 98 96 78 48 21 11 12 17 26 25 30
11 11 11 10 10 8 8 9 10 11 15 19 24 33 42 41 34 33 50 78 92 99 100 100 100 100 100 100 99 100 100 100 99 89 68 38 16 10 14 20 25 31 28 38
12 10 9 7 7 8 9 10 13 18 26 35 39 41 38 32 41 69 89 98 99 99 100 100 100 100 100 100 100 100 100 95 76 47 20 11 10 14 21 24 32 35 31 53
8 8 8 8 9 11 14 22 28 31 36 42 41 32 39 71 86 93 97 100 100 100 100 100 100 100 100 100 100 99 82 52 20 15 12 12 17 20 23 27 35 37 38 63
10 10 10 14 17 23 29 36 43 47 42 33 43 72 84 87 92 94 93 95 97 100 100 100 100 100 100 95 81 57 28 17 13 12 17 21 22 23 27 29 39 40 36 70
14 19 20 25 33 43 50 49 40 36 41 65 90 93 95 99 97 96 97 100 100 98 99 100 99 93 76 46 26 19 15 15 16 19 24 25 26 29 38 40 44 40 39 76
25 33 46 56 56 51 46 43 46 73 94 96 99 100 100 95 93 93 92 91 95 100 98 84 72 51 29 22 18 19 21 18 17 20 25 29 33 41 48 47 47 39 38 85
60 64 61 56 53 45 43 74 95 100 100 100 99 94 92 91 86 84 89 91 85 81 72 51 31 27 25 26 25 24 23 18 21 28 29 32 37 46 45 46 46 38 38 80
65 55 42 34 34 56 89 100 100 100 100 96 92 86 81 74 71 74 71 74 72 52 30 27 29 32 36 36 28 28 21 21 28 34 37 40 42 47 40 39 41 37 38 71
33 32 34 47 76 96 100 100 99 96 90 83 71 52 37 36 39 55 61 54 40 32 26 25 30 40 39 31 32 24 22 23 26 31 39 45 45 45 38 32 38 38 38 72
44 60 80 95 100 100 98 93 87 76 51 27 18 14 22 38 41 48 50 33 23 27 40 50 55 49 36 32 28 20 23 23 22 22 26 32 38 37 32 30 33 37 43 77
98 100 100 99 94 90 84 54 28 17 10 8 10 19 35 49 51 40 28 33 55 68 68 60 51 38 33 29 21 18 20 22 22 23 25 26 27 28 28 30 33 39 51 89
93 94 92 85 63 30 17 9 6 7 8 17 35 53 52 43 39 38 60 71 63 55 48 40 34 31 25 18 16 20 23 22 22 22 25 26 27 28 30 33 39 53 77 100
90 76 48 23 11 6 7 7 8 15 30 48 65 66 61 55 69 79 62 56 47 40 37 32 26 18 14 15 23 23 20 20 20 20 22 23 25 28 33 44 54 73 98 100
37 16 9 7 7 7 8 10 23 39 62 83 88 83 86 89 78 65 54 44 39 37 30 18 13 13 22 25 20 17 15 15 16 18 21 24 27 30 33 40 66 84 97 100
8 8 8 8 8 9 13 29 51 71 84 92 95 95 85 70 59 47 42 40 35 21 15 12 21 27 21 16 16 15 16 17 20 22 26 31 34 38 42 51 73 100 100 100
8 8 8 8 11 16 29 49 78 94 93 87 86 75 64 54 49 44 39 22 16 12 18 27 22 16 15 16 16 18 20 21 24 28 35 43 47 51 52 55 59 86 94 100
8 9 10 12 20 39 63 72 79 86 86 77 69 62 55 50 42 25 19 13 16 26 23 16 16 18 16 16 18 18 19 21 25 34 46 52 63 70 68 66 72 94 100 100

GFSNGP_500_rhum_054.txt.gz
RH
10 11 54 54 54 56 21 15 18 27 38 37 84 57 17 13 19 18 19 22 19 18 15 14 16 18 21 24 30 36 36 37 46 58 62 64 82 98 99 100 100 100 100 100
8 9 7 12 13 17 18 20 23 27 33 39 42 41 27 23 24 22 19 17 15 14 14 16 20 25 28 34 38 36 37 51 62 58 83 99 100 98 100 100 100 100 100 100
14 16 19 18 21 21 19 18 22 24 27 33 30 24 24 24 25 17 16 14 18 20 23 26 28 33 37 38 34 39 57 58 53 91 100 100 100 100 100 100 100 100 100 95
31 32 24 26 22 24 22 22 26 24 22 22 17 13 18 16 17 18 27 24 24 26 30 33 34 37 36 33 45 57 50 62 94 98 100 97 100 100 100 100 100 100 99 89
30 32 31 28 24 29 30 32 21 19 24 22 19 22 16 16 21 20 20 21 22 24 29 33 32 31 48 56 55 42 62 94 100 100 100 100 100 100 100 100 100 98 88 64
34 32 29 29 28 31 32 30 23 28 25 21 18 17 15 11 10 10 10 11 17 25 27 26 32 52 58 44 46 79 100 100 100 100 100 100 100 100 100 100 100 91 56 26
24 27 27 31 23 30 26 22 19 14 10 9 7 10 9 7 9 10 10 18 20 24 33 46 49 40 41 68 96 91 98 100 97 100 100 100 100 100 100 99 86 57 25 11
20 23 22 19 14 10 10 7 8 8 8 9 8 9 9 9 10 12 17 22 26 40 44 35 38 73 94 100 93 100 100 100 100 100 100 100 100 99 95 77 46 17 11 11
11 11 9 8 7 8 8 9 9 9 9 9 8 7 9 10 14 18 26 40 43 37 36 67 93 100 100 97 100 100 100 100 100 100 100 100 100 83 52 23 10 11 13 19
10 13 10 10 10 10 10 10 10 8 7 8 9 7 12 17 26 32 42 40 35 50 84 99 100 99 100 100 100 100 100 100 100 100 100 93 62 32 11 10 11 15 21 23
13 13 12 9 12 12 10 8 7 8 9 10 13 17 21 29 39 43 37 47 79 91 95 98 97 100 100 100 100 100 100 100 100 99 75 39 17 13 11 13 18 23 26 29
12 13 13 12 13 10 8 8 8 9 13 20 26 34 44 47 38 40 60 80 93 98 100 98 97 95 96 100 100 100 100 97 73 42 24 21 16 14 14 16 22 27 36 43
13 13 15 14 11 10 9 9 11 15 21 34 48 50 40 38 46 73 93 97 98 95 88 87 92 100 100 96 97 94 72 47 27 29 28 23 20 18 16 20 26 30 40 51
16 18 19 16 13 11 12 14 19 34 51 54 48 44 48 68 89 94 93 96 96 95 93 92 90 92 93 80 68 49 31 30 33 35 36 23 22 19 20 26 28 32 43 48
24 24 20 17 14 14 20 33 54 60 56 50 40 44 76 91 96 100 99 96 91 87 80 64 61 70 66 52 39 34 30 31 36 46 40 27 26 19 23 29 36 38 44 44
39 25 18 16 23 35 56 64 60 48 34 33 56 84 96 100 100 94 87 80 55 28 35 37 48 57 52 41 28 29 43 59 61 51 35 29 25 19 22 26 35 37 42 41
26 23 28 39 61 66 61 44 32 32 44 77 99 100 100 94 87 72 38 18 11 16 19 30 43 53 41 27 34 62 66 57 44 34 29 24 21 19 22 24 28 40 46 43
33 47 67 68 54 40 34 36 51 77 96 100 96 88 87 71 34 11 6 7 10 21 36 49 49 35 31 58 65 54 44 38 33 28 22 19 20 22 23 25 30 31 35 35
73 62 45 38 39 48 67 87 99 99 92 88 87 65 28 8 5 6 7 9 20 32 43 48 40 52 73 59 42 35 33 29 23 16 15 17 21 23 23 25 28 28 29 29
44 52 70 85 94 99 100 96 90 89 84 57 25 8 5 6 7 8 14 28 47 61 66 69 82 75 49 37 29 25 24 16 13 15 21 25 24 22 22 23 25 28 30 31
79 94 100 100 100 97 94 89 81 54 23 9 6 6 7 7 11 19 41 72 79 86 91 83 56 42 31 25 21 16 13 14 24 27 24 21 20 19 20 22 24 27 30 37
100 100 100 98 95 88 77 50 24 10 7 6 6 7 8 10 24 59 90 91 89 81 65 46 38 28 22 17 14 14 23 26 22 18 18 18 18 18 19 22 24 28 32 42
100 97 93 90 81 52 24 10 7 7 7 7 8 9 14 38 68 78 79 79 68 54 42 33 26 18 16 14 21 25 20 14 16 18 18 18 19 21 23 26 29 32 37 42
95 97 86 55 26 10 8 8 8 8 8 9 11 18 39 54 73 80 76 65 51 40 33 21 18 15 16 23 19 12 13 17 17 17 18 20 22 25 28 35 42 45 47 53
90 63 28 10 8 8 9 9 9 9 10 12 25 46 64 75 79 74 63 48 38 27 19 18 16 20 21 14 13 16 17 15 15 15 17 19 22 28 37 46 59 66 68 70
22 10 8 9 9 10 10 10 10 12 21 44 56 65 77 78 73 60 46 32 21 20 17 18 23 18 13 16 19 18 15 14 14 15 16 18 21 33 62 83 83 92 91 84
9 9 10 10 11 11 11 13 17 31 48 65 75 78 74 63 52 38 25 21 21 17 22 24 16 15 20 20 18 17 15 14 16 16 16 18 22 27 49 83 96 91 92 95